Satellite: LIBERT
Catalog number: 31129
Epoch time:      08080.75989907
Element set:     832
Inclination:      098.0462 deg
RA of node:       147.9353 deg
Eccentricity:    0.0101366
Arg of perigee:   247.9873 deg
Mean anomaly:     111.0523 deg
Mean motion:   14.52013326 rev/day
Decay rate:       3.36e-06 rev/day^2
Epoch rev:            4908
Checksum:              299

/EX
SB KEPS @ AMSAT  $ORB08080.W
Orbital Elements  08080.WEATHER

HR AMSAT ORBITAL ELEMENTS FOR WEATHER SATELLITES
FROM WA5QGD FORT WORTH,TX March 20, 2008
Send Subscribe/unsubscribe to KEPS at 
http://www.amsat.org/mailman/listinfo/keps
BID: ORB08080.W
TO ALL RADIO AMATEURS BT

Satellite: NOAA-10
Catalog number: 16969
Epoch time:      08080.12859353
Element set:      50
Inclination:      098.7298 deg
RA of node:       102.2475 deg
Eccentricity:    0.0013238
Arg of perigee:   081.5557 deg
Mean anomaly:     278.7119 deg
Mean motion:   14.27353551 rev/day
Decay rate:       -1.8e-07 rev/day^2
Epoch rev:           11873
Checksum:              313

Satellite: NOAA-11
Catalog number: 19531
Epoch time:      08080.34654619
Element set:      88
Inclination:      098.7961 deg
RA of node:       170.9163 deg
Eccentricity:    0.0011017
Arg of perigee:   325.0439 deg
Mean anomaly:     034.9995 deg
Mean motion:   14.14868325 rev/day
Decay rate:       -5.4e-07 rev/day^2
Epoch rev:             534
Checksum:              308

Satellite: NOAA-12
Catalog number: 21263
Epoch time:      08080.48295898
Element set:     596
Inclination:      098.7670 deg
RA of node:       082.4441 deg
Eccentricity:    0.0012996
Arg of perigee:   027.4679 deg
Mean anomaly:     332.7200 deg
Mean motion:   14.25521468 rev/day
Decay rate:       -7.0e-07 rev/day^2
Epoch rev:           87575
Checksum:              334

Satellite: MET-3/5
Catalog number: 21655
Epoch time:      08079.92916425
Element set:    0408
Inclination:      082.5597 deg
RA of node:       167.4359 deg
Eccentricity:    0.0012378
Arg of perigee:   233.7852 deg
Mean anomaly:     126.2126 deg
Mean motion:   13.17014277 rev/day
Decay rate:        5.1e-07 rev/day^2
Epoch rev:           79783
Checksum:              327

Satellite: MET-2/21
Catalog number: 22782
Epoch time:      08079.75633146
Element set:    0094
Inclination:      082.5510 deg
RA of node:       182.5090 deg
Eccentricity:    0.0022770
Arg of perigee:   177.0108 deg
Mean anomaly:     183.1195 deg
Mean motion:   13.83627134 rev/day
Decay rate:        2.7e-07 rev/day^2
Epoch rev:           73476
Checksum:              299

Satellite: OKEAN-4
Catalog number: 23317
Epoch time:      08079.56453361
Element set:    0537
Inclination:      082.5391 deg
RA of node:       038.6855 deg
Eccentricity:    0.0023903
Arg of perigee:   064.2069 deg
Mean anomaly:     296.1605 deg
Mean motion:   14.82588007 rev/day
Decay rate:        5.0e-07 rev/day^2
Epoch rev:           72500
Checksum:              301

Satellite: NOAA-14
Catalog number: 23455
Epoch time:      08080.51458474
Element set:      70
Inclination:      098.9534 deg
RA of node:       152.6847 deg
Eccentricity:    0.0009804
Arg of perigee:   041.4495 deg
Mean anomaly:     318.7418 deg
Mean motion:   14.13737465 rev/day
Decay rate:        1.3e-07 rev/day^2
Epoch rev:           68182
Checksum:              317

Satellite: SICH-1
Catalog number: 23657
Epoch time:      08079.72830951
Element set:    0336
Inclination:      082.5303 deg
RA of node:       179.5030 deg
Eccentricity:    0.0025454
Arg of perigee:   056.4342 deg
Mean anomaly:     303.9315 deg
Mean motion:   14.81561107 rev/day
Decay rate:       2.62e-06 rev/day^2
Epoch rev:           67697
Checksum:              298

Satellite: NOAA-15
Catalog number: 25338
Epoch time:      08080.51625959
Element set:     395
Inclination:      098.5524 deg
RA of node:       074.6457 deg
Eccentricity:    0.0009758
Arg of perigee:   304.1077 deg
Mean anomaly:     055.9179 deg
Mean motion:   14.24691254 rev/day
Decay rate:        6.8e-07 rev/day^2
Epoch rev:           51217
Checksum:              334

Satellite: RESURS
Catalog number: 25394
Epoch time:      08080.72560331
Element set:     883
Inclination:      098.4014 deg
RA of node:       128.6724 deg
Eccentricity:    0.0002352
Arg of perigee:   087.2808 deg
Mean anomaly:     272.8640 deg
Mean motion:   14.24155324 rev/day
Decay rate:        4.0e-08 rev/day^2
Epoch rev:           50385
Checksum:              282

Satellite: FENGYUN1
Catalog number: 25730
Epoch time:      08080.92175787
Element set:     367
Inclination:      098.7200 deg
RA of node:       059.7061 deg
Eccentricity:    0.0022499
Arg of perigee:   060.6318 deg
Mean anomaly:     299.7096 deg
Mean motion:   14.07718790 rev/day
Decay rate:       4.82e-06 rev/day^2
Epoch rev:           45654
Checksum:              333

Satellite: OKEAN-0
Catalog number: 25860
Epoch time:      08079.88794471
Element set:     318
Inclination:      097.7464 deg
RA of node:       074.4071 deg
Eccentricity:    0.0000935
Arg of perigee:   106.7509 deg
Mean anomaly:     253.3799 deg
Mean motion:   14.73508617 rev/day
Decay rate:        5.3e-07 rev/day^2
Epoch rev:           46624
Checksum:              331

Satellite: NOAA-16
Catalog number: 26536
Epoch time:      08080.51975558
Element set:     857
Inclination:      099.1511 deg
RA of node:       067.7745 deg
Eccentricity:    0.0011295
Arg of perigee:   112.5463 deg
Mean anomaly:     247.6898 deg
Mean motion:   14.12473332 rev/day
Decay rate:       1.92e-06 rev/day^2
Epoch rev:           38625
Checksum:              332

Satellite: NOAA-17
Catalog number: 27453
Epoch time:      08080.51703647
Element set:     853
Inclination:      098.5430 deg
RA of node:       147.6813 deg
Eccentricity:    0.0011659
Arg of perigee:   012.2961 deg
Mean anomaly:     347.8506 deg
Mean motion:   14.23957906 rev/day
Decay rate:        8.6e-07 rev/day^2
Epoch rev:           29818
Checksum:              328

Satellite: NOAA-18
Catalog number: 28654
Epoch time:      08080.49475621
Element set:     360
Inclination:      098.8599 deg
RA of node:       022.5486 deg
Eccentricity:    0.0013776
Arg of perigee:   201.3510 deg
Mean anomaly:     158.7081 deg
Mean motion:   14.11144814 rev/day
Decay rate:      -2.04e-06 rev/day^2
Epoch rev:           14596
Checksum:              309

/EX
SB KEPS @ AMSAT  $ORB08080.M
Orbital Elements  08080.MISC

HR AMSAT ORBITAL ELEMENTS FOR MANNED AND MISCELLANEOUS SATELLITES
FROM WA5QGD FORT WORTH,TX March 20, 2008
Send Subscribe/unsubscribe to KEPS at 
http://www.amsat.org/mailman/listinfo/keps
BID: ORB08080.M
TO ALL RADIO AMATEURS BT

Satellite: HUBBLE
Catalog number: 20580
Epoch time:      08079.67564565
Element set:      96
Inclination:      028.4678 deg
RA of node:       187.0286 deg
Eccentricity:    0.0003952
Arg of perigee:   156.7919 deg
Mean anomaly:     203.2848 deg
Mean motion:   15.00351632 rev/day
Decay rate:       3.96e-06 rev/day^2
Epoch rev:           78152
Checksum:              325

Satellite: UARS
Catalog number: 21701
Epoch time:      08079.79297454
Element set:    0326
Inclination:      056.9740 deg
RA of node:       191.2476 deg
Eccentricity:    0.0086567
Arg of perigee:   011.9503 deg
Mean anomaly:     348.3580 deg
Mean motion:   15.50919748 rev/day
Decay rate:      3.898e-05 rev/day^2
Epoch rev:           90862
Checksum:              346

Satellite: PO-34
Catalog number: 25520
Epoch time:      08079.34059552
Element set:     955
Inclination:      028.4596 deg
RA of node:       060.2752 deg
Eccentricity:    0.0005172
Arg of perigee:   026.1995 deg
Mean anomaly:     333.8861 deg
Mean motion:   15.17152709 rev/day
Decay rate:       5.44e-06 rev/day^2
Epoch rev:           51950
Checksum:              313

Satellite: ISS
Catalog number: 25544
Epoch time:      08081.00262771
Element set:     153
Inclination:      051.6390 deg
RA of node:       110.9868 deg
Eccentricity:    0.0001297
Arg of perigee:   299.9711 deg
Mean anomaly:     141.8022 deg
Mean motion:   15.76285268 rev/day
Decay rate:    -4.6364e-04 rev/day^2
Epoch rev:           53461
Checksum:              303

Satellite: OO-38
Catalog number: 26063
Epoch time:      08079.88713160
Element set:     164
Inclination:      100.2007 deg
RA of node:       138.3411 deg
Eccentricity:    0.0037282
Arg of perigee:   101.1753 deg
Mean anomaly:     259.3618 deg
Mean motion:   14.35829707 rev/day
Decay rate:       -4.1e-07 rev/day^2
Epoch rev:           42675
Checksum:              289

Satellite: UWE-1
Catalog number: 28892
Epoch time:      08079.69257386
Element set:    0003
Inclination:      098.1055 deg
RA of node:       335.4260 deg
Eccentricity:    0.0017216
Arg of perigee:   332.7234 deg
Mean anomaly:     027.3054 deg
Mean motion:   14.59604691 rev/day
Decay rate:       1.28e-06 rev/day^2
Epoch rev:           12754
Checksum:              301

Satellite: CO-58
Catalog number: 28895
Epoch time:      08079.66299332
Element set:    0975
Inclination:      098.1089 deg
RA of node:       335.7190 deg
Eccentricity:    0.0017785
Arg of perigee:   332.9440 deg
Mean anomaly:     027.0849 deg
Mean motion:   14.59646397 rev/day
Decay rate:       1.00e-06 rev/day^2
Epoch rev:           12742
Checksum:              357

Satellite: NCUBE2
Catalog number: 28897
Epoch time:      08079.70646466
Element set:    0508
Inclination:      098.1067 deg
RA of node:       335.6976 deg
Eccentricity:    0.0017400
Arg of perigee:   334.3250 deg
Mean anomaly:     025.7080 deg
Mean motion:   14.59815400 rev/day
Decay rate:       1.56e-06 rev/day^2
Epoch rev:           11971
Checksum:              313

